2017-008H

Last updated on Tue Feb 28 2017 00:15:03 GMT+0000 (Coordinated Universal Time)

1 41955U 17008H 17058.63651306 .00001659 00000-0 77345-4 0 9992 2 41955 97.5082 120.2353 0009043 207.9976 152.0763 15.21278267 1791
UTC large
Height (km)
Speed (km/s)
/
Latitude / Longitude
Inclination (degrees)
Orbital Period (minutes)
Azimuth
Elevation
Range (km)
Doppler Factor

Next 0 passes for location: London (51.5072 / 0.1276)

Sorry there are no passes over London.